Weather History for Vacaville, CA

Change the Weather History Date:

Thursday, November 15, 2012

  Actual Average Record
Temperature  
Mean Temperature 52 °F -  
Max Temperature 66 °F 62 °F 82 °F (2010)
Min Temperature 39 °F 41 °F 30 °F (2000)
Degree Days  
Heating Degree Days 12    
Growing Degree Days 2 (Base 50)    
Moisture  
Dew Point 44 °F    
Average Humidity 76    
Maximum Humidity 100    
Minimum Humidity 48    
Precipitation  
Precipitation 0.00 in - - ()
Sea Level Pressure  
Sea Level Pressure 30.02 in    
Wind  
Wind Speed 1 mph (SSW)    
Max Wind Speed 6 mph    
Max Gust Speed -    
Visibility 10 miles    
Events      
Averages and records for this station are not official NWS values.
T = Trace of Precipitation, MM = Missing Value Source: NWS Daily Summary

Daily Weather History Graph

Daily Weather History Graph

Search for Another Location

Airport:

Trip Planner

Search our weather history database for the weather conditions in past years. The results will help you decide how hot, cold, wet, or windy it might be!

Date:

Astronomy

Nov. 15, 2012 Rise Set
Actual Time 6:49 AM PST 4:54 PM PST
Civil Twilight 6:21 AM PST 5:23 PM PST
Nautical Twilight 5:49 AM PST 5:55 PM PST
Astronomical Twilight 5:18 AM PST 6:26 PM PST
Moon 8:50 AM PST (11/15) 6:53 PM PST (11/15)
Length of Visible Light 11h 01m
Length of Day
10h 04m
Waxing Crescent, 5% of the Moon is Illuminated
Nov 15
Waxing Crescent
Nov 20
First Quarter
Nov 28
Full
Dec 6
Last Quarter
Dec 13
New

Hourly Weather History & Observations

Time (PST) Temp. Dew Point Humidity Pressure Visibility Wind Dir Wind Speed Gust Speed Precip Events Conditions
12:53 AM 43.0 °F 42.1 °F 97% 30.04 in 10.0 mi Calm Calm - N/A   Clear
1:53 AM 41.0 °F 39.9 °F 96% 30.04 in 9.0 mi Calm Calm - N/A   Clear
2:53 AM 39.9 °F 39.0 °F 97% 30.04 in 9.0 mi Calm Calm - N/A   Clear
3:53 AM 41.0 °F 41.0 °F 100% 30.03 in 7.0 mi Calm Calm - N/A   Clear
4:53 AM 41.0 °F 39.9 °F 96% 30.02 in 10.0 mi Calm Calm - N/A   Clear
5:53 AM 43.0 °F 41.0 °F 93% 30.02 in 10.0 mi Calm Calm - N/A   Clear
6:53 AM 39.9 °F 39.9 °F 100% 30.04 in 10.0 mi Calm Calm - N/A   Clear
7:53 AM 44.1 °F 42.1 °F 93% 30.04 in 10.0 mi Calm Calm - N/A   Clear
8:53 AM 54.0 °F 46.9 °F 77% 30.06 in 10.0 mi NNE 3.5 mph - N/A   Clear
9:53 AM 57.0 °F 45.0 °F 64% 30.06 in 10.0 mi Variable 4.6 mph - N/A   Clear
10:53 AM 61.0 °F 46.0 °F 58% 30.06 in 10.0 mi North 4.6 mph - N/A   Clear
11:53 AM 62.1 °F 46.0 °F 56% 30.03 in 10.0 mi NNE 3.5 mph - N/A   Clear
12:53 PM 64.0 °F 46.0 °F 52% 30.01 in 10.0 mi Variable 3.5 mph - N/A   Clear
1:53 PM 64.9 °F 46.9 °F 52% 29.99 in 10.0 mi Calm Calm - N/A   Clear
2:53 PM 66.0 °F 46.0 °F 48% 29.97 in 10.0 mi Calm Calm - N/A   Clear
3:53 PM 64.0 °F 46.9 °F 54% 29.98 in 10.0 mi Calm Calm - N/A   Clear
4:53 PM 59.0 °F 46.9 °F 64% 29.98 in 8.0 mi Calm Calm - N/A   Clear
5:53 PM 60.1 °F 46.0 °F 60% 29.99 in 9.0 mi South 4.6 mph - N/A   Clear
6:53 PM 59.0 °F 48.0 °F 67% 29.99 in 10.0 mi South 4.6 mph - N/A   Clear
7:53 PM 57.0 °F 46.9 °F 69% 30.01 in 10.0 mi SW 5.8 mph - N/A   Clear
8:53 PM 55.0 °F 46.9 °F 74% 30.03 in 10.0 mi South 3.5 mph - N/A   Clear
9:53 PM 53.1 °F 46.0 °F 77% 30.02 in 10.0 mi SW 3.5 mph - N/A   Clear
10:53 PM 46.9 °F 44.1 °F 90% 30.01 in 10.0 mi Calm Calm - N/A   Clear
11:53 PM 48.9 °F 45.0 °F 86% 30.01 in 10.0 mi Calm Calm - N/A   Clear